STARLINK-5833, 55773

Orbit data source: Space-Track

STARLINK-5833, 55773 is a payload satellite owned by SpaceX/Seattle (US) in LEO that was launched on Fri, 03 Mar 2023 UTC via an FALCON 9 launch vehicle from the Air Force Western Test Range (AFWTR). Payload-class satellites include a variety of spacecraft equipped with specific instruments for various scientific and technological missions. These include communications satellites like Starlink; space stations such as the ISS; scientific satellites like the Hubble; Earth observation satellites from companies like Planet Labs, Umbra, and HawkEye 360; GPS; miniature CubeSats for education and research; and military/defense satellites.

Loading next visibility...
Identifier
55773, 2023-028AJ
Orbit
LEO
Country
Flag of USUS
Related business
Manufacturer
SpaceX/Seattle
Mission
Operational Commercial Communications
Bus & Motor
STARLINK, Unknown motor
Mass
305 kg wet, ~290 kg dry
Launch date (UTC)
2023-03-03 (3 years ago)
Launch vehicle
FALCON 9
Launch site
Air Force Western Test Range (AFWTR)
Object type
Payload
Rocket body
Debris
Shape & HBR
Box + 1 Pan, 10.1 m
Radar Cross Section
11.087 m², Large (>1 m²)

Expand to show TLE details & history
Last TLE update: 2 days ago

TLE from 2 days ago
0 STARLINK-5833
1 55773U 23028AJ  26171.45048902  .00000383  00000-0  39931-4 0  9994
2 55773  69.9993 325.4392 0002944 270.1332  89.9490 14.98330145181927
Epoch: 2026-06-20T10:48Z
TLE epoch observation values (Epoch: 2026-06-20T10:48:42.251Z)
Latitude
0.00001°
Longitude
-105.40178°
Altitude
574.478 km
Speed
7.574 km/s
True Right ascension
21h 41m 45s
True Declination
0° 00' 00"
Sunlit
Object was in full shadow at epoch
Visualization orbit readout
Latitude
Unknown
Longitude
Unknown
Altitude
Unknown
Speed
Unknown
Apparent Right ascension
Unknown
Apparent Declination
Unknown
Sunlit
N/A
Visualization observer readout
Local Sidereal Time
21:28:50
Azimuth
Unknown
Elevation
Unknown
Doppler factor
Unknown
Orbital elements
Apogee altitude
572.049 km
Perigee altitude
567.958 km
Semi-major axis
6,948.141 km
Eccentricity
0.00029
Inclination
69.9993°
RAAN
325.4392°
Arg. of periapsis
270.1332°
True anomaly
89.98274°
Mean anomaly
89.949°
Eccentric anomaly
89.96587°
Mean motion
3.74749 °/min
Orbital period
96.06 mins
BSTAR
0.000039931
Loading maneuver chart data...
Computing Atmospheric mass density...
Loading historical data...
Loading historical data...
Loading historical data...
Loading historical data...
Loading historical data...
Loading historical data...
Loading historical data...

Documentation

Showing up to 5 results
|